QPF
0.12 0.09 0.08 0.07 0.06 0.08 0.09 0.09 0.08 0.07 0.08 0.08 0.06 0.05 0.06 0.07 0.08 0.08 0.06 0.05 0.05 0.05 0.07 0.08 0.08 0.10 0.12 0.13 0.12 0.12 0.10 0.10 0.09 0.08 0.07 0.05 0.06 0.06 0.07 0.07 0.04 0.03 0.03
0.09 0.07 0.05 0.05 0.05 0.06 0.06 0.07 0.07 0.06 0.08 0.07 0.07 0.07 0.07 0.09 0.09 0.07 0.06 0.06 0.05 0.05 0.08 0.09 0.08 0.10 0.13 0.17 0.17 0.14 0.13 0.13 0.12 0.11 0.09 0.07 0.06 0.08 0.11 0.09 0.08 0.05 0.04
0.07 0.06 0.04 0.05 0.05 0.04 0.05 0.06 0.05 0.07 0.07 0.08 0.09 0.09 0.09 0.07 0.07 0.09 0.08 0.07 0.05 0.05 0.08 0.08 0.09 0.12 0.16 0.18 0.21 0.22 0.21 0.20 0.18 0.14 0.10 0.08 0.07 0.09 0.19 0.16 0.13 0.09 0.08
0.04 0.04 0.04 0.04 0.05 0.05 0.05 0.05 0.05 0.06 0.08 0.09 0.09 0.10 0.09 0.08 0.08 0.09 0.08 0.06 0.04 0.04 0.06 0.07 0.08 0.09 0.14 0.16 0.15 0.14 0.13 0.15 0.16 0.11 0.07 0.06 0.06 0.07 0.13 0.20 0.19 0.14 0.11
0.02 0.04 0.05 0.05 0.04 0.05 0.05 0.05 0.05 0.07 0.09 0.09 0.08 0.08 0.07 0.07 0.06 0.07 0.06 0.07 0.05 0.04 0.05 0.07 0.08 0.08 0.08 0.07 0.07 0.07 0.07 0.07 0.09 0.10 0.09 0.07 0.06 0.07 0.08 0.14 0.21 0.16 0.14
0.03 0.04 0.04 0.04 0.04 0.05 0.06 0.05 0.05 0.05 0.05 0.06 0.05 0.06 0.07 0.06 0.05 0.06 0.05 0.05 0.05 0.04 0.04 0.06 0.07 0.06 0.06 0.05 0.04 0.05 0.05 0.05 0.06 0.07 0.08 0.08 0.07 0.07 0.08 0.08 0.12 0.14 0.12
0.03 0.05 0.04 0.04 0.05 0.05 0.06 0.06 0.06 0.04 0.04 0.05 0.05 0.06 0.06 0.05 0.05 0.05 0.05 0.04 0.03 0.04 0.04 0.05 0.07 0.06 0.05 0.04 0.04 0.04 0.05 0.05 0.06 0.06 0.07 0.08 0.07 0.05 0.05 0.05 0.06 0.07 0.07
0.04 0.03 0.04 0.05 0.06 0.06 0.06 0.07 0.08 0.07 0.05 0.05 0.06 0.08 0.08 0.09 0.08 0.05 0.05 0.05 0.04 0.03 0.04 0.05 0.04 0.04 0.03 0.02 0.03 0.03 0.03 0.03 0.04 0.06 0.05 0.06 0.05 0.04 0.03 0.04 0.04 0.06 0.07
0.04 0.04 0.05 0.06 0.07 0.06 0.05 0.06 0.07 0.08 0.08 0.06 0.05 0.09 0.12 0.12 0.11 0.09 0.07 0.05 0.04 0.03 0.03 0.03 0.04 0.04 0.03 0.03 0.03 0.03 0.03 0.02 0.04 0.06 0.06 0.06 0.06 0.06 0.04 0.04 0.05 0.05 0.06
0.02 0.03 0.04 0.06 0.07 0.07 0.07 0.05 0.05 0.06 0.08 0.08 0.07 0.07 0.08 0.09 0.12 0.11 0.08 0.06 0.05 0.04 0.03 0.02 0.03 0.04 0.03 0.03 0.03 0.03 0.03 0.02 0.03 0.05 0.05 0.06 0.06 0.05 0.04 0.05 0.05 0.04 0.04
0.03 0.02 0.04 0.06 0.06 0.07 0.06 0.05 0.06 0.07 0.08 0.09 0.08 0.08 0.07 0.07 0.08 0.09 0.10 0.09 0.06 0.05 0.03 0.02 0.03 0.03 0.04 0.04 0.04 0.03 0.02 0.02 0.02 0.03 0.04 0.04 0.04 0.04 0.04 0.04 0.04 0.03 0.03
0.03 0.03 0.03 0.05 0.05 0.04 0.04 0.05 0.07 0.08 0.07 0.07 0.06 0.05 0.04 0.05 0.06 0.07 0.09 0.11 0.09 0.07 0.05 0.04 0.04 0.03 0.03 0.04 0.03 0.02 0.02 0.01 0.01 0.02 0.02 0.02 0.02 0.02 0.02 0.03 0.03 0.03 0.03
0.02 0.03 0.04 0.05 0.05 0.06 0.05 0.06 0.06 0.06 0.07 0.06 0.05 0.05 0.03 0.03 0.03 0.05 0.07 0.09 0.09 0.07 0.07 0.06 0.04 0.05 0.04 0.04 0.03 0.02 0.02 0.01 0.01 0.01 0.01 0.00 0.01 0.01 0.02 0.02 0.03 0.04 0.05
0.02 0.03 0.03 0.03 0.04 0.04 0.04 0.05 0.04 0.04 0.05 0.05 0.04 0.05 0.04 0.03 0.03 0.04 0.06 0.07 0.08 0.07 0.07 0.05 0.03 0.05 0.05 0.04 0.03 0.03 0.02 0.01 0.01 0.01 0.01 0.01 0.01 0.02 0.03 0.03 0.04 0.05 0.07
0.02 0.02 0.02 0.03 0.03 0.04 0.04 0.05 0.05 0.05 0.06 0.05 0.05 0.06 0.05 0.04 0.04 0.04 0.06 0.06 0.08 0.09 0.10 0.08 0.06 0.04 0.04 0.03 0.02 0.02 0.02 0.01 0.01 0.01 0.02 0.03 0.03 0.02 0.03 0.04 0.04 0.04 0.05
0.03 0.03 0.03 0.03 0.03 0.05 0.06 0.05 0.05 0.05 0.06 0.05 0.06 0.08 0.07 0.05 0.07 0.08 0.08 0.08 0.08 0.09 0.08 0.06 0.05 0.04 0.05 0.03 0.03 0.03 0.02 0.01 0.02 0.02 0.01 0.02 0.02 0.03 0.02 0.02 0.02 0.02 0.02
0.04 0.03 0.03 0.03 0.04 0.05 0.06 0.06 0.06 0.07 0.06 0.07 0.08 0.08 0.08 0.09 0.11 0.11 0.10 0.09 0.07 0.06 0.06 0.04 0.04 0.05 0.06 0.05 0.05 0.05 0.04 0.04 0.02 0.02 0.02 0.01 0.01 0.02 0.02 0.02 0.02 0.02 0.01
0.02 0.03 0.03 0.03 0.03 0.04 0.05 0.06 0.06 0.08 0.08 0.07 0.09 0.10 0.10 0.09 0.08 0.07 0.07 0.06 0.06 0.06 0.06 0.05 0.05 0.05 0.06 0.06 0.05 0.04 0.03 0.03 0.03 0.02 0.02 0.01 0.01 0.01 0.02 0.02 0.02 0.02 0.02
0.03 0.03 0.04 0.03 0.03 0.04 0.05 0.05 0.07 0.07 0.09 0.10 0.12 0.11 0.07 0.06 0.07 0.07 0.06 0.06 0.05 0.04 0.05 0.05 0.07 0.08 0.07 0.06 0.06 0.04 0.03 0.03 0.02 0.01 0.01 0.01 0.01 0.01 0.02 0.02 0.02 0.02 0.02
0.03 0.04 0.04 0.03 0.03 0.04 0.04 0.04 0.05 0.08 0.10 0.10 0.09 0.07 0.05 0.05 0.06 0.07 0.06 0.07 0.06 0.05 0.05 0.05 0.05 0.05 0.05 0.04 0.05 0.05 0.04 0.04 0.03 0.02 0.03 0.02 0.02 0.02 0.02 0.03 0.03 0.02 0.01
0.03 0.04 0.04 0.04 0.03 0.03 0.03 0.04 0.04 0.05 0.06 0.05 0.05 0.05 0.05 0.05 0.04 0.04 0.04 0.05 0.05 0.06 0.06 0.07 0.06 0.04 0.05 0.05 0.04 0.04 0.04 0.05 0.05 0.03 0.06 0.05 0.03 0.03 0.03 0.03 0.03 0.02 0.01
0.02 0.03 0.03 0.03 0.03 0.02 0.02 0.03 0.04 0.04 0.04 0.04 0.04 0.05 0.06 0.03 0.02 0.02 0.02 0.02 0.02 0.03 0.04 0.06 0.06 0.05 0.05 0.04 0.04 0.04 0.04 0.05 0.04 0.03 0.05 0.05 0.05 0.05 0.04 0.04 0.04 0.04 0.02
0.03 0.03 0.03 0.04 0.03 0.03 0.04 0.04 0.04 0.03 0.03 0.03 0.03 0.05 0.04 0.02 0.02 0.01 0.01 0.01 0.01 0.01 0.02 0.03 0.05 0.05 0.04 0.04 0.04 0.04 0.05 0.05 0.05 0.05 0.06 0.04 0.05 0.05 0.04 0.04 0.05 0.04 0.03
0.03 0.03 0.04 0.04 0.04 0.03 0.03 0.03 0.03 0.04 0.04 0.04 0.03 0.03 0.03 0.02 0.02 0.02 0.02 0.02 0.02 0.02 0.01 0.02 0.03 0.04 0.03 0.02 0.03 0.04 0.05 0.05 0.04 0.05 0.05 0.05 0.05 0.05 0.04 0.03 0.03 0.02 0.02
0.03 0.03 0.03 0.03 0.03 0.03 0.02 0.01 0.02 0.03 0.05 0.05 0.04 0.03 0.02 0.02 0.02 0.02 0.03 0.03 0.02 0.02 0.02 0.01 0.01 0.02 0.02 0.01 0.01 0.02 0.04 0.05 0.04 0.03 0.04 0.04 0.04 0.05 0.04 0.03 0.03 0.04 0.04
0.02 0.02 0.02 0.03 0.03 0.03 0.02 0.01 0.01 0.01 0.03 0.05 0.05 0.04 0.03 0.03 0.03 0.03 0.04 0.05 0.04 0.04 0.03 0.03 0.02 0.02 0.02 0.02 0.02 0.03 0.04 0.04 0.04 0.03 0.03 0.05 0.05 0.06 0.05 0.04 0.04 0.05 0.05
MSLP
1015.82 1016.06 1016.18 1016.19 1016.15 1016.11 1016.10 1016.17 1016.32 1016.54 1016.80 1017.07 1017.33 1017.56 1017.77 1017.97 1018.18 1018.41 1018.68 1018.98 1019.28 1019.56 1019.80 1019.96 1020.04 1020.05 1020.00 1019.94 1019.88 1019.86 1019.89 1019.97 1020.11 1020.30 1020.50 1020.72 1020.92 1021.12 1021.29 1021.44 1021.56 1021.67 1021.77
1015.14 1015.41 1015.57 1015.64 1015.68 1015.71 1015.79 1015.94 1016.17 1016.47 1016.80 1017.13 1017.44 1017.70 1017.91 1018.10 1018.27 1018.45 1018.66 1018.90 1019.16 1019.42 1019.66 1019.86 1020.01 1020.09 1020.12 1020.13 1020.12 1020.14 1020.18 1020.27 1020.40 1020.56 1020.76 1020.96 1021.16 1021.34 1021.51 1021.65 1021.77 1021.87 1021.96
1014.36 1014.66 1014.87 1015.03 1015.16 1015.31 1015.50 1015.76 1016.09 1016.47 1016.87 1017.26 1017.59 1017.86 1018.07 1018.22 1018.33 1018.44 1018.57 1018.74 1018.95 1019.18 1019.42 1019.65 1019.85 1020.01 1020.13 1020.22 1020.29 1020.36 1020.44 1020.54 1020.68 1020.84 1021.02 1021.20 1021.39 1021.57 1021.73 1021.87 1021.99 1022.09 1022.18
1013.53 1013.85 1014.12 1014.38 1014.62 1014.90 1015.21 1015.59 1016.02 1016.49 1016.95 1017.38 1017.74 1018.01 1018.19 1018.30 1018.35 1018.39 1018.45 1018.54 1018.68 1018.87 1019.10 1019.35 1019.60 1019.83 1020.04 1020.22 1020.37 1020.50 1020.64 1020.78 1020.92 1021.09 1021.26 1021.44 1021.62 1021.79 1021.94 1022.08 1022.20 1022.30 1022.40
1012.71 1013.03 1013.35 1013.69 1014.04 1014.43 1014.88 1015.36 1015.89 1016.43 1016.94 1017.41 1017.78 1018.06 1018.23 1018.31 1018.33 1018.31 1018.30 1018.33 1018.41 1018.56 1018.77 1019.02 1019.31 1019.60 1019.87 1020.13 1020.37 1020.58 1020.77 1020.95 1021.13 1021.31 1021.48 1021.66 1021.83 1021.99 1022.14 1022.27 1022.39 1022.50 1022.60
1011.96 1012.25 1012.59 1012.98 1013.42 1013.90 1014.44 1015.01 1015.61 1016.21 1016.77 1017.26 1017.66 1017.95 1018.13 1018.22 1018.22 1018.19 1018.15 1018.14 1018.18 1018.29 1018.48 1018.73 1019.02 1019.35 1019.68 1020.01 1020.32 1020.60 1020.85 1021.08 1021.30 1021.50 1021.68 1021.86 1022.03 1022.18 1022.32 1022.45 1022.56 1022.66 1022.76
1011.33 1011.55 1011.86 1012.27 1012.74 1013.28 1013.87 1014.50 1015.14 1015.77 1016.36 1016.88 1017.31 1017.64 1017.86 1017.98 1018.02 1018.01 1017.98 1017.96 1017.99 1018.08 1018.25 1018.48 1018.78 1019.12 1019.49 1019.87 1020.23 1020.57 1020.89 1021.17 1021.42 1021.65 1021.86 1022.04 1022.20 1022.35 1022.48 1022.59 1022.70 1022.79 1022.87
1010.83 1010.95 1011.21 1011.58 1012.04 1012.58 1013.18 1013.82 1014.46 1015.10 1015.71 1016.26 1016.73 1017.11 1017.40 1017.59 1017.71 1017.75 1017.77 1017.78 1017.82 1017.91 1018.06 1018.28 1018.57 1018.91 1019.30 1019.70 1020.11 1020.50 1020.87 1021.20 1021.50 1021.76 1021.98 1022.18 1022.34 1022.48 1022.60 1022.70 1022.78 1022.86 1022.93
1010.49 1010.49 1010.64 1010.94 1011.34 1011.84 1012.40 1013.00 1013.62 1014.25 1014.86 1015.42 1015.94 1016.39 1016.77 1017.05 1017.26 1017.40 1017.49 1017.56 1017.63 1017.72 1017.87 1018.07 1018.35 1018.69 1019.07 1019.50 1019.93 1020.36 1020.77 1021.15 1021.49 1021.78 1022.03 1022.24 1022.41 1022.55 1022.66 1022.74 1022.82 1022.87 1022.92
1010.29 1010.16 1010.19 1010.38 1010.69 1011.09 1011.58 1012.12 1012.69 1013.28 1013.87 1014.46 1015.02 1015.53 1016.00 1016.39 1016.70 1016.94 1017.12 1017.25 1017.36 1017.47 1017.62 1017.82 1018.07 1018.40 1018.78 1019.21 1019.66 1020.12 1020.57 1020.98 1021.36 1021.68 1021.96 1022.19 1022.37 1022.52 1022.63 1022.71 1022.78 1022.82 1022.86
1010.21 1009.95 1009.86 1009.91 1010.10 1010.40 1010.79 1011.24 1011.74 1012.28 1012.86 1013.44 1014.03 1014.61 1015.15 1015.63 1016.05 1016.38 1016.64 1016.83 1016.98 1017.12 1017.27 1017.46 1017.70 1018.02 1018.39 1018.82 1019.28 1019.76 1020.23 1020.68 1021.09 1021.45 1021.75 1022.01 1022.21 1022.38 1022.50 1022.59 1022.66 1022.72 1022.76
1010.22 1009.84 1009.62 1009.55 1009.61 1009.78 1010.06 1010.41 1010.84 1011.33 1011.87 1012.45 1013.06 1013.68 1014.28 1014.83 1015.32 1015.73 1016.05 1016.29 1016.48 1016.64 1016.80 1016.99 1017.23 1017.53 1017.90 1018.33 1018.79 1019.28 1019.78 1020.25 1020.68 1021.07 1021.41 1021.70 1021.93 1022.13 1022.28 1022.40 1022.50 1022.58 1022.64
1010.26 1009.78 1009.44 1009.24 1009.18 1009.23 1009.39 1009.66 1010.01 1010.45 1010.96 1011.53 1012.15 1012.79 1013.42 1014.02 1014.55 1015.01 1015.38 1015.66 1015.88 1016.06 1016.24 1016.43 1016.67 1016.97 1017.33 1017.76 1018.23 1018.72 1019.23 1019.72 1020.17 1020.59 1020.96 1021.29 1021.56 1021.80 1022.00 1022.16 1022.30 1022.42 1022.52
1010.28 1009.72 1009.28 1008.96 1008.77 1008.71 1008.78 1008.96 1009.24 1009.63 1010.12 1010.67 1011.29 1011.94 1012.58 1013.20 1013.77 1014.25 1014.65 1014.96 1015.21 1015.42 1015.62 1015.82 1016.07 1016.38 1016.75 1017.18 1017.65 1018.14 1018.65 1019.15 1019.62 1020.06 1020.46 1020.82 1021.14 1021.43 1021.68 1021.90 1022.10 1022.27 1022.42
1010.24 1009.61 1009.07 1008.64 1008.34 1008.18 1008.16 1008.27 1008.50 1008.86 1009.31 1009.86 1010.47 1011.11 1011.76 1012.39 1012.96 1013.47 1013.89 1014.24 1014.52 1014.77 1014.99 1015.23 1015.51 1015.83 1016.21 1016.64 1017.11 1017.60 1018.10 1018.61 1019.09 1019.54 1019.97 1020.36 1020.73 1021.06 1021.37 1021.64 1021.90 1022.12 1022.32
1010.10 1009.39 1008.76 1008.24 1007.84 1007.60 1007.50 1007.55 1007.74 1008.07 1008.51 1009.04 1009.64 1010.28 1010.93 1011.56 1012.14 1012.66 1013.12 1013.50 1013.83 1014.13 1014.41 1014.70 1015.01 1015.37 1015.76 1016.19 1016.66 1017.14 1017.64 1018.13 1018.61 1019.07 1019.51 1019.93 1020.33 1020.71 1021.06 1021.38 1021.69 1021.96 1022.22
1009.80 1009.03 1008.32 1007.71 1007.23 1006.92 1006.76 1006.77 1006.94 1007.24 1007.67 1008.19 1008.78 1009.41 1010.06 1010.69 1011.28 1011.83 1012.33 1012.77 1013.16 1013.53 1013.88 1014.23 1014.60 1014.99 1015.41 1015.85 1016.31 1016.78 1017.26 1017.73 1018.20 1018.66 1019.11 1019.54 1019.96 1020.36 1020.74 1021.10 1021.44 1021.75 1022.03
1009.34 1008.50 1007.72 1007.05 1006.52 1006.15 1005.96 1005.94 1006.09 1006.38 1006.80 1007.31 1007.89 1008.50 1009.14 1009.77 1010.39 1010.97 1011.52 1012.02 1012.50 1012.95 1013.39 1013.82 1014.24 1014.67 1015.11 1015.56 1016.01 1016.47 1016.93 1017.38 1017.84 1018.28 1018.72 1019.16 1019.58 1019.99 1020.38 1020.75 1021.10 1021.43 1021.73
1008.69 1007.80 1006.98 1006.28 1005.72 1005.34 1005.13 1005.11 1005.25 1005.53 1005.93 1006.42 1006.98 1007.58 1008.20 1008.83 1009.46 1010.08 1010.69 1011.27 1011.83 1012.37 1012.89 1013.40 1013.89 1014.36 1014.83 1015.28 1015.72 1016.16 1016.60 1017.03 1017.46 1017.89 1018.31 1018.73 1019.14 1019.54 1019.93 1020.29 1020.64 1020.97 1021.27
1007.86 1006.96 1006.13 1005.43 1004.89 1004.52 1004.34 1004.33 1004.47 1004.75 1005.14 1005.60 1006.13 1006.69 1007.29 1007.91 1008.55 1009.20 1009.85 1010.50 1011.14 1011.77 1012.38 1012.95 1013.50 1014.01 1014.49 1014.95 1015.38 1015.80 1016.21 1016.61 1017.02 1017.42 1017.83 1018.22 1018.62 1018.99 1019.36 1019.70 1020.03 1020.34 1020.65
1006.89 1005.99 1005.20 1004.55 1004.06 1003.75 1003.62 1003.65 1003.82 1004.10 1004.47 1004.90 1005.39 1005.91 1006.48 1007.07 1007.70 1008.37 1009.05 1009.75 1010.46 1011.15 1011.82 1012.45 1013.04 1013.58 1014.08 1014.53 1014.95 1015.35 1015.74 1016.12 1016.50 1016.88 1017.26 1017.63 1017.99 1018.34 1018.68 1019.00 1019.30 1019.60 1019.89
1005.81 1004.96 1004.24 1003.68 1003.29 1003.07 1003.02 1003.11 1003.32 1003.61 1003.97 1004.37 1004.82 1005.29 1005.81 1006.37 1006.98 1007.63 1008.33 1009.06 1009.80 1010.54 1011.25 1011.92 1012.53 1013.09 1013.59 1014.04 1014.45 1014.83 1015.19 1015.55 1015.91 1016.26 1016.62 1016.97 1017.30 1017.62 1017.93 1018.22 1018.50 1018.78 1019.08
1004.70 1003.93 1003.30 1002.86 1002.59 1002.49 1002.54 1002.71 1002.96 1003.28 1003.64 1004.02 1004.42 1004.85 1005.32 1005.83 1006.41 1007.04 1007.73 1008.46 1009.21 1009.96 1010.69 1011.38 1012.00 1012.56 1013.06 1013.50 1013.90 1014.26 1014.62 1014.96 1015.30 1015.63 1015.97 1016.29 1016.60 1016.90 1017.18 1017.45 1017.71 1017.98 1018.28
1003.65 1002.95 1002.43 1002.10 1001.96 1001.98 1002.13 1002.38 1002.70 1003.06 1003.42 1003.79 1004.17 1004.56 1004.98 1005.46 1005.99 1006.59 1007.25 1007.97 1008.71 1009.45 1010.18 1010.86 1011.49 1012.04 1012.54 1012.97 1013.36 1013.72 1014.06 1014.39 1014.72 1015.05 1015.37 1015.67 1015.96 1016.23 1016.49 1016.75 1017.00 1017.28 1017.58
1002.76 1002.11 1001.67 1001.44 1001.39 1001.50 1001.74 1002.07 1002.44 1002.83 1003.22 1003.59 1003.96 1004.34 1004.74 1005.18 1005.68 1006.25 1006.88 1007.57 1008.28 1009.01 1009.72 1010.39 1011.00 1011.55 1012.04 1012.48 1012.87 1013.23 1013.57 1013.91 1014.23 1014.55 1014.85 1015.14 1015.42 1015.68 1015.92 1016.17 1016.42 1016.69 1017.00
1002.12 1001.49 1001.08 1000.88 1000.87 1001.03 1001.32 1001.68 1002.10 1002.52 1002.93 1003.32 1003.70 1004.08 1004.48 1004.91 1005.40 1005.94 1006.55 1007.21 1007.89 1008.59 1009.27 1009.92 1010.53 1011.07 1011.57 1012.01 1012.42 1012.79 1013.15 1013.49 1013.82 1014.14 1014.44 1014.72 1014.98 1015.23 1015.46 1015.70 1015.95 1016.22 1016.54
Thickness
5762 5761 5759 5758 5757 5756 5755 5754 5754 5754 5753 5753 5753 5753 5752 5750 5750 5748 5746 5745 5744 5743 5743 5741 5740 5739 5738 5737 5736 5734 5733 5731 5730 5729 5728 5727 5726 5725 5724 5723 5723 5722 5721
5760 5759 5758 5756 5755 5755 5754 5753 5753 5752 5751 5751 5751 5750 5750 5749 5748 5746 5744 5743 5742 5742 5741 5740 5738 5737 5736 5735 5734 5732 5731 5730 5729 5728 5726 5725 5724 5724 5723 5723 5722 5721 5720
5759 5757 5755 5754 5754 5754 5753 5752 5751 5750 5750 5749 5748 5748 5747 5747 5746 5745 5743 5742 5741 5740 5739 5738 5736 5735 5734 5734 5732 5731 5729 5728 5727 5726 5725 5723 5723 5722 5722 5722 5721 5720 5719
5758 5756 5754 5753 5753 5752 5751 5750 5748 5747 5746 5745 5745 5746 5746 5745 5744 5743 5742 5741 5740 5739 5737 5736 5735 5734 5732 5731 5730 5729 5728 5727 5725 5724 5723 5722 5721 5721 5720 5720 5719 5719 5718
5757 5755 5753 5752 5751 5750 5749 5748 5746 5745 5742 5742 5742 5743 5743 5743 5742 5742 5741 5740 5739 5738 5736 5734 5732 5731 5729 5729 5728 5727 5726 5725 5723 5722 5721 5720 5719 5719 5718 5717 5717 5716 5715
5756 5754 5752 5751 5750 5748 5745 5744 5742 5743 5742 5741 5741 5741 5741 5741 5741 5740 5739 5738 5738 5736 5735 5733 5731 5729 5727 5726 5725 5724 5724 5723 5721 5720 5719 5718 5717 5716 5715 5715 5714 5713 5712
5755 5753 5751 5749 5748 5745 5743 5742 5740 5739 5739 5740 5736 5733 5735 5738 5738 5738 5737 5736 5735 5735 5734 5732 5730 5728 5725 5724 5723 5722 5722 5721 5719 5718 5717 5716 5714 5714 5713 5712 5711 5710 5709
5754 5752 5749 5747 5746 5743 5741 5739 5738 5736 5736 5737 5733 5728 5724 5726 5731 5736 5735 5734 5734 5733 5732 5731 5729 5727 5724 5722 5721 5719 5719 5718 5717 5716 5714 5713 5712 5711 5710 5709 5708 5707 5706
5752 5750 5748 5746 5744 5742 5739 5737 5736 5733 5731 5734 5734 5728 5721 5718 5723 5729 5731 5732 5731 5730 5730 5729 5727 5725 5723 5721 5719 5717 5716 5715 5714 5714 5713 5711 5710 5709 5708 5706 5704 5703 5702
5751 5749 5747 5745 5742 5740 5738 5736 5735 5734 5732 5729 5731 5732 5730 5727 5720 5718 5724 5728 5728 5727 5727 5726 5725 5723 5721 5718 5716 5715 5714 5713 5712 5711 5710 5709 5707 5706 5704 5703 5701 5699 5698
5749 5747 5745 5743 5740 5738 5736 5735 5733 5732 5731 5729 5727 5728 5727 5727 5725 5718 5715 5718 5722 5724 5724 5723 5722 5720 5718 5716 5714 5713 5711 5710 5709 5708 5707 5706 5705 5703 5702 5699 5697 5695 5694
5747 5745 5743 5741 5739 5737 5735 5733 5731 5730 5729 5728 5727 5726 5724 5722 5721 5719 5715 5714 5715 5718 5721 5721 5719 5718 5716 5714 5712 5711 5709 5708 5706 5705 5704 5703 5702 5700 5698 5696 5694 5692 5691
5743 5741 5741 5739 5737 5736 5734 5732 5729 5727 5727 5725 5724 5724 5724 5723 5723 5721 5716 5713 5713 5714 5715 5716 5716 5715 5713 5711 5709 5708 5706 5705 5703 5701 5700 5699 5698 5696 5695 5693 5691 5689 5688
5742 5740 5739 5737 5735 5734 5733 5731 5728 5726 5725 5724 5723 5722 5721 5722 5722 5721 5717 5713 5708 5707 5708 5709 5712 5712 5710 5708 5706 5704 5702 5701 5699 5698 5697 5695 5694 5693 5691 5689 5688 5686 5684
5740 5739 5737 5735 5733 5732 5730 5728 5726 5724 5723 5722 5720 5719 5718 5718 5719 5720 5719 5715 5708 5701 5700 5704 5705 5707 5707 5705 5703 5701 5700 5698 5696 5695 5693 5692 5691 5689 5687 5685 5684 5682 5681
5737 5735 5733 5732 5730 5728 5728 5726 5723 5722 5720 5719 5717 5716 5715 5715 5715 5715 5714 5714 5713 5706 5700 5703 5704 5705 5704 5703 5700 5699 5697 5695 5693 5691 5690 5688 5687 5685 5683 5682 5680 5678 5677
5734 5732 5730 5728 5727 5726 5725 5723 5721 5719 5717 5715 5714 5713 5711 5711 5710 5710 5711 5710 5709 5706 5699 5700 5703 5702 5700 5698 5697 5696 5694 5691 5689 5688 5687 5685 5683 5682 5680 5678 5677 5675 5674
5731 5729 5727 5725 5724 5722 5721 5719 5716 5716 5713 5711 5710 5708 5707 5708 5707 5706 5706 5705 5704 5703 5699 5695 5696 5696 5695 5695 5694 5693 5691 5689 5687 5685 5684 5682 5680 5679 5677 5675 5674 5672 5671
5727 5726 5724 5721 5719 5718 5716 5715 5713 5712 5711 5709 5707 5705 5704 5703 5702 5702 5701 5700 5700 5701 5698 5694 5692 5692 5691 5691 5689 5688 5688 5686 5685 5683 5681 5678 5677 5675 5673 5672 5670 5669 5668
5723 5721 5719 5717 5715 5714 5712 5711 5709 5708 5707 5706 5704 5703 5702 5700 5698 5698 5697 5696 5696 5694 5693 5690 5688 5687 5685 5685 5684 5681 5680 5680 5680 5680 5678 5675 5673 5671 5670 5669 5667 5665 5663
5719 5717 5715 5713 5712 5709 5707 5705 5705 5704 5702 5701 5701 5700 5699 5698 5697 5695 5694 5692 5691 5688 5686 5684 5681 5680 5678 5677 5675 5675 5673 5674 5674 5675 5673 5672 5670 5668 5666 5665 5663 5661 5659
5715 5713 5710 5708 5706 5704 5701 5700 5700 5700 5698 5697 5696 5696 5696 5694 5693 5692 5691 5689 5688 5685 5681 5679 5676 5674 5672 5672 5671 5670 5668 5666 5665 5669 5667 5666 5667 5665 5664 5662 5660 5658 5656
5709 5707 5705 5704 5701 5698 5697 5696 5696 5696 5694 5693 5692 5692 5692 5692 5690 5688 5687 5686 5684 5683 5681 5678 5674 5672 5670 5669 5667 5665 5663 5661 5660 5663 5662 5660 5662 5660 5659 5659 5657 5656 5654
5703 5702 5700 5699 5697 5694 5693 5692 5692 5692 5691 5690 5689 5689 5687 5686 5686 5684 5683 5682 5680 5678 5677 5675 5673 5671 5669 5666 5664 5661 5659 5659 5660 5660 5658 5653 5655 5654 5655 5653 5652 5651 5649
5698 5697 5696 5695 5692 5690 5688 5688 5687 5688 5687 5687 5687 5686 5684 5683 5681 5680 5679 5676 5674 5673 5673 5671 5670 5667 5665 5663 5660 5656 5654 5651 5649 5651 5652 5648 5648 5648 5648 5648 5647 5645 5644
5694 5693 5692 5690 5689 5687 5684 5683 5683 5684 5683 5683 5682 5682 5680 5678 5676 5675 5673 5671 5668 5667 5667 5666 5663 5662 5661 5659 5656 5652 5649 5645 5643 5642 5645 5642 5641 5640 5639 5642 5641 5639 5638